Flag for Liberia Weather past 2 weeks in Kakata, Liberia

Now
77 °F

Rain. Mostly cloudy.


Feels Like: 78 °F
Forecast: 74 / 83 °F
Wind: 6 mph from Southwest

Location: Roberts Field

Current Time: Jul 6, 2015 at 12:32:22 PM

Latest Report: Jul 6, 2015 at 12:00 PM


Visibility: 2 mi

Pressure: 29.92 "Hg

Humidity: 94%

Dew point: 75 °F

Location of KakataLocation

Historic Weather in Kakata — Graph

°F

Kakata temperature yesterday

Maximum temperature yesterday: 82 °F (at 2:00 PM)
Minimum temperature yesterday: 75 °F (at 4:30 AM)
Average temperature yesterday: 78 °F

Past Weeks' High & Low Weather Summary

 TemperatureHumidityPressure
High86 °F (Jun 26, 12:30 PM)100% (Jun 23, 4:30 AM)30.12 "Hg (Jun 23, 4:30 AM)
Low73 °F (Jun 24, 4:30 AM)74% (Jun 22, 2:30 PM)29.86 "Hg (Jul 5, 4:00 PM)
Average78 °F91%29.99 "Hg
* Reported Jun 22 7:00 AM — Jul 6 11:30 AM, Kakata, Weather by CustomWeather, © 2015

Note: Actual official high and low records may vary slightly from our data, if they occured in-between our weather recording intervals... More about our weather records

Advertising

Kakata weather history for previous 24 hours

 ConditionsComfort  
Time TempWeatherWind HumidityBarometerVisibility
11:30 AM
Mon, Jul 6
77 °FRain. Mostly cloudy.3 mph94%29.92 "Hg2 mi
11:00 AM77 °FLight rain. Mostly cloudy.5 mph94%29.92 "Hg4 mi
10:30 AM79 °FLight rain. Broken clouds.6 mph94%29.92 "Hg5 mi
10:00 AM79 °FDrizzle. Broken clouds.No wind89%29.92 "Hg5 mi
9:30 AM77 °FRain. Mostly cloudy.No wind94%29.92 "Hg2 mi
9:00 AM77 °FDrizzle. Mostly cloudy.No wind94%29.92 "Hg2 mi
8:30 AM77 °FDrizzle. Mostly cloudy.No wind94%29.92 "Hg2 mi
8:00 AM77 °FLight rain. Mostly cloudy.No wind94%29.89 "Hg2 mi
7:30 AM75 °FRain. Mostly cloudy.No wind94%29.89 "Hg2 mi
7:00 AM75 °FRain. Partly cloudy.No wind94%29.89 "Hg4 mi
6:30 AM77 °FLight rain. Partly cloudy.No wind94%29.89 "Hg4 mi
5:30 AM77 °FLight rain. Passing clouds.No wind94%29.86 "Hg4 mi
5:00 AM77 °FLight rain. Passing clouds.No wind94%29.86 "Hg4 mi
4:30 AM77 °FLight rain. Passing clouds.No wind94%29.86 "Hg4 mi
3:30 AM77 °FPassing clouds.No wind94%29.86 "HgN/A
3:00 AM77 °FPassing clouds.No wind94%29.86 "HgN/A
2:30 AM77 °FPassing clouds.No wind94%29.86 "HgN/A
2:00 AM77 °FPassing clouds.No wind94%29.89 "HgN/A
1:30 AM77 °FPassing clouds.No wind94%29.89 "HgN/A
1:00 AM77 °FPassing clouds.No wind94%29.92 "HgN/A
12:30 AM77 °FPassing clouds.No wind94%29.92 "HgN/A
12:00 AM77 °FPassing clouds.No wind94%29.92 "HgN/A
11:30 PM
Sun, Jul 5
77 °FPassing clouds.No wind94%29.92 "HgN/A
11:00 PM77 °FPassing clouds.No wind94%29.92 "HgN/A
10:30 PM77 °FPassing clouds.No wind94%29.92 "HgN/A
10:00 PM77 °FPassing clouds.No wind94%29.92 "HgN/A
9:00 PM77 °FPassing clouds.No wind94%29.89 "HgN/A
8:30 PM77 °FPassing clouds.No wind94%29.89 "HgN/A
8:00 PM77 °FPassing clouds.No wind94%29.89 "HgN/A
7:30 PM77 °FPartly sunny.3 mph94%29.89 "HgN/A
7:00 PM77 °FPartly sunny.No wind94%29.89 "HgN/A
6:30 PM79 °FPartly sunny.6 mph89%29.86 "HgN/A
6:00 PM79 °FPartly sunny.6 mph89%29.86 "HgN/A
5:30 PM79 °FPartly sunny.No wind94%29.86 "HgN/A
5:00 PM79 °FLight rain. Broken clouds.No wind94%29.86 "Hg6 mi
4:30 PM79 °FLight rain. Mostly cloudy.No wind94%29.86 "Hg5 mi
4:00 PM79 °FMostly cloudy.7 mph94%29.86 "Hg6 mi
3:30 PM77 °FRain. Mostly cloudy.9 mph94%29.89 "Hg3 mi
3:00 PM77 °FRain. Partly sunny.6 mph94%29.89 "Hg2 mi
2:30 PM81 °FPartly sunny.8 mph84%29.89 "HgN/A
2:00 PM82 °FPartly sunny.9 mph79%29.89 "HgN/A
1:30 PM81 °FPartly sunny.7 mph84%29.89 "HgN/A
1:00 PM81 °FDrizzle. Partly sunny.7 mph84%29.92 "HgN/A
12:30 PM81 °FDrizzle. Partly sunny.8 mph84%29.92 "Hg6 mi
12:00 PM81 °FPartly sunny.7 mph84%29.92 "HgN/A
Weather by CustomWeather, © 2015

See weather overviewHow to use our weather pages